Starlink 1012

operational
NORAD ID: 44718 Int'l Des: 2019-074 Owner: SPXS Country: US Constellation: starlink
LEOCIRCULARSTARLINK_TYPE

Über Starlink 1012

Beschreibung wird geladen...

Live-Position

3D-Globus wird geladen...

Nächste Überflüge

Höhenverlauf

Altitude vs Time

uPlot chart will show altitude changes over time

Zweizeiliger Elementsatz

1 44718U 19074F 25303.70923678 -.00000773 00000-0 -32990-4 0 9996
2 44718 53.0546 50.1200 0001906 127.1563 232.9601 15.06391321329152
Epoch: 30. Okt. 2025 • Age: 13 hours

Aktueller Status

Höhe 552.8 km
Geschwindigkeit 7.59 km/s
Subsatellitenpunkt 53.17°N, 2.53°E
Startdatum 11. Nov. 2019
Alter 5.9 years
Typ internet

Technische Details

Klassifizierung Payload
Masse 260.00 kg
Trockenmasse 248.00 kg
Gesamtmasse 260.00 kg
Länge 0.20 m
Durchmesser 2.80 m
Spannweite 9.00 m
Form Box + pan
Hersteller SPXS
Bus-Typ Starlink
Phasenstatus In Orbit
Besitzer/Staat SPXS/US

Große Konstellationen

Loading constellations...